カタログに戻る

FLOCK 4H 4

運用中科学SSO
NORAD 66707·PAYLOAD·🇺🇸 United States

打ち上げ Nov 28, 2025 から Vandenberg Space Force Base

Loading…

次のパス (今後24時間)

TLE

最新Source: CelesTrak SupGP

元期: Sep 14, 2026, 14:44 UTC

1 66707C 25276AT  26257.61423611  .00008047  00000+0  36670-3 0  2574
2 66707  97.4154 329.7138 0005784  62.5615 280.3202 15.20716890    17

AllMySatでFLOCK 4H 4をリアルタイム追跡

Download on the App Store